User: anonymous   Login
Location: Unspecified
(0.0000°N, 0.0000°E)
Time: 02:47:27
(UTC+00:00)
Language:

UKube-1 - Orbit

View from above orbital plane
View from above orbital plane
View from above satellite
View from above satellite

Ground track
Ground track

The orbit data is extracted from the following two-line orbital elements,

1 40074U 14037F   17147.51853448 +.00000442 +00000-0 +60898-4 0  9993
2 40074 098.3439 261.5097 0005749 112.5417 247.6395 14.83482300156112
Epoch (UTC): 27 May 2017 12:26:41
Eccentricity: 0.0005749
inclination: 98.3439°
perigee height: 614 km
apogee height: 622 km
right ascension of ascending node: 261.5097°
argument of perigee: 112.5417°
revolutions per day: 14.83482300
mean anomaly at epoch: 247.6395°
orbit number at epoch: 15611

The dashed part of the orbit path shows where the satellite is in the earth's shadow,  

DLR